レモン彗星

C/2018 U1 ( Lemmon )

English version
Home page
Updated on December 9, 2019

---------------------------------------------------------------------

・ プロフィール

発見日 2018年10月27日
発見光度 20.0等
発見者 R. A. Kowalski (Mount Lemmon Survey)

・ 写真集

・ 軌道要素

Epoch 2021 Nov. 2.0 TT = JDT 2459520.5
T 2021 Nov. 3.05342 TT                                  Williams
q   4.9926661            (2000.0)            P               Q
z  -0.0002896      Peri.  180.46665     -0.25317026     -0.30189221
 +/-0.0000041      Node    75.48088     -0.88448790     +0.45709963
e   1.0014457      Incl.  108.29871     -0.39190047     -0.83661283
From 420 observations 2018 Oct. 27-2019 Oct. 26, mean residual 0".4.

・ 星図

・ 光度変化

        m1 = 0.0 + 5 logΔ + 15.0 log r

---------------------------------------------------------------------

軌道要素はM.P.E.C. 2019-V116に掲載されたものです。
星図はステラナビゲータ Ver.10 (アストロアーツ) で作成したものです。
光度グラフはComet for Windowsで作成したものです。

---------------------------------------------------------------------

Copyright(C) Seiichi Yoshida (comet@aerith.net). All rights reserved.